Change the Weather History Date:

Tuesday, January 1, 2013

  Actual Average (KBAD) Record (KBAD)
Temperature  
Mean Temperature 48 °F -  
Max Temperature 52 °F 56 °F 68 °F (2012)
Min Temperature 44 °F 37 °F 27 °F (2009)
Degree Days  
Heating Degree Days 17    
Moisture  
Dew Point 44 °F    
Average Humidity 88    
Maximum Humidity 94    
Minimum Humidity 80    
Precipitation  
Precipitation 0.19 in - - ()
Sea Level Pressure  
Sea Level Pressure 30.11 in    
Wind  
Wind Speed 6 mph (NNW)    
Max Wind Speed 12 mph    
Max Gust Speed 16 mph    
Visibility 10 miles    
Events Rain    
Averages and records for this station are not official NWS values.
T = Trace of Precipitation, MM = Missing Value Source: NWS Daily Summary

Daily Weather History Graph

Daily Weather History Graph

Search for Another Location

Airport or City:

Trip Planner

Search our weather history database for the weather conditions in past years. The results will help you decide how hot, cold, wet, or windy it might be!

Date:

Astronomy

Jan. 01, 2013 Rise Set
Actual Time 7:15 AM CST 5:18 PM CST
Civil Twilight 6:48 AM CST 5:45 PM CST
Nautical Twilight 6:17 AM CST 6:16 PM CST
Astronomical Twilight 5:47 AM CST 6:46 PM CST
Moon 9:34 PM CST 9:42 AM CST
Length of Visible Light 10h 57m
Length of Day
10h 03m
Waning Gibbous, 83% of the Moon is Illuminated
Jan 1
Waning Gibbous
Jan 4
Last Quarter
Jan 11
New
Jan 18
First Quarter
Jan 26
Full

Hourly Weather History & Observations

Time (CST) Temp. Windchill Dew Point Humidity Pressure Visibility Wind Dir Wind Speed Gust Speed Precip Events Conditions
12:15 AM 52.2 °F - 50.4 °F 94% 30.02 in 7.0 mi NNW 5.8 mph - 0.03 in Rain Rain
12:35 AM 52.0 °F - 50.2 °F 94% 30.01 in 10.0 mi North 6.9 mph - 0.05 in Rain Light Rain
12:55 AM 51.8 °F - 50.0 °F 94% 30.02 in 10.0 mi NNW 8.1 mph - 0.08 in Rain Rain
1:15 AM 51.3 °F - 49.3 °F 93% 30.02 in 10.0 mi NNW 5.8 mph - 0.03 in Rain Rain
1:35 AM 50.9 °F - 49.1 °F 94% 30.02 in 7.0 mi NNW 6.9 mph - 0.05 in Rain Rain
1:55 AM 50.7 °F - 48.6 °F 92% 30.04 in 10.0 mi NW 6.9 mph - 0.08 in Rain Rain
2:15 AM 50.4 °F - 48.4 °F 93% 30.03 in 10.0 mi North 5.8 mph - 0.02 in Rain Rain
2:35 AM 50.2 °F - 48.2 °F 93% 30.03 in 10.0 mi North 5.8 mph - 0.03 in Rain Light Rain
3:15 AM 49.5 °F - 47.5 °F 93% 30.04 in 10.0 mi North 6.9 mph - N/A Rain Light Rain
3:35 AM 49.3 °F - 47.3 °F 93% 30.05 in 10.0 mi NNW 8.1 mph - N/A Rain Rain
3:55 AM 48.7 °F - 46.6 °F 92% 30.05 in 10.0 mi NNW 6.9 mph - N/A   Light Drizzle
4:15 AM 48.6 °F - 46.4 °F 92% 30.02 in 10.0 mi North 5.8 mph - N/A Rain Rain
4:35 AM 48.4 °F - 46.4 °F 93% 30.02 in 10.0 mi North 4.6 mph - N/A   Overcast
5:15 AM 48.2 °F - 45.9 °F 92% 30.02 in 10.0 mi East 4.6 mph - N/A   Overcast
5:35 AM 48.2 °F - 45.9 °F 92% 30.02 in 10.0 mi Calm Calm - N/A   Overcast
6:15 AM 48.2 °F - 45.9 °F 92% 30.04 in 10.0 mi North 3.5 mph - N/A   Light Drizzle
6:35 AM 48.2 °F - 45.9 °F 92% 30.04 in 10.0 mi Calm Calm - N/A   Overcast
6:55 AM 48.0 °F - 45.9 °F 92% 30.04 in 10.0 mi North 3.5 mph - N/A   Overcast
7:15 AM 47.7 °F - 45.5 °F 92% 30.04 in 10.0 mi NNE 3.5 mph - N/A   Overcast
7:35 AM 47.7 °F - 45.5 °F 92% 30.07 in 10.0 mi Calm Calm - N/A   Overcast
7:55 AM 47.7 °F - 45.3 °F 92% 30.08 in 10.0 mi NNW 5.8 mph - N/A   Light Drizzle
8:15 AM 47.3 °F - 45.0 °F 92% 30.09 in 10.0 mi North 5.8 mph - N/A   Overcast
8:35 AM 47.3 °F - 44.8 °F 91% 30.12 in 10.0 mi NW 5.8 mph - N/A Rain Light Rain
8:55 AM 47.3 °F - 44.8 °F 91% 30.13 in 10.0 mi NNW 6.9 mph - N/A Rain Light Rain
9:15 AM 46.8 °F - 44.6 °F 92% 30.13 in 10.0 mi North 8.1 mph - N/A   Overcast
9:35 AM 46.6 °F - 44.2 °F 92% 30.12 in 10.0 mi NNW 10.4 mph - N/A   Overcast
9:55 AM 46.0 °F 41.4 °F 43.7 °F 92% 30.12 in 10.0 mi North 9.2 mph 16.1 mph N/A   Overcast
10:15 AM 45.9 °F 41.2 °F 43.3 °F 91% 30.13 in 10.0 mi North 9.2 mph - N/A   Overcast
10:35 AM 46.2 °F 42.2 °F 43.2 °F 89% 30.13 in 10.0 mi NNW 8.1 mph - N/A   Overcast
10:55 AM 46.4 °F 41.9 °F 43.2 °F 88% 30.15 in 10.0 mi NNW 9.2 mph - N/A   Overcast
11:15 AM 46.4 °F 41.5 °F 43.0 °F 88% 30.14 in 10.0 mi NNW 10.4 mph - N/A   Overcast
11:35 AM 46.4 °F 42.4 °F 42.8 °F 87% 30.15 in 10.0 mi NW 8.1 mph - N/A   Overcast
11:55 AM 45.9 °F 41.7 °F 42.4 °F 88% 30.11 in 10.0 mi North 8.1 mph - N/A Rain Light Rain
12:15 PM 46.0 °F 44.8 °F 42.6 °F 88% 30.13 in 10.0 mi NNW 3.5 mph - N/A   Overcast
12:35 PM 46.4 °F 43.5 °F 43.0 °F 88% 30.09 in 10.0 mi NE 5.8 mph - N/A Rain Light Rain
12:55 PM 47.1 °F - 43.2 °F 86% 30.07 in 10.0 mi NE 5.8 mph - N/A   Overcast
1:15 PM 47.3 °F - 43.2 °F 86% 30.07 in 10.0 mi East 6.9 mph - N/A   Overcast
1:35 PM 47.5 °F - 43.2 °F 85% 30.06 in 10.0 mi North 3.5 mph - N/A   Overcast
1:55 PM 48.2 °F - 43.5 °F 84% 30.07 in 10.0 mi NW 5.8 mph - N/A   Overcast
2:15 PM 48.2 °F - 43.5 °F 84% 30.09 in 10.0 mi NW 9.2 mph - N/A   Overcast
2:35 PM 48.2 °F - 43.5 °F 84% 30.10 in 10.0 mi NNW 5.8 mph - N/A   Overcast
2:55 PM 48.2 °F - 43.2 °F 83% 30.11 in 10.0 mi NW 6.9 mph - N/A   Overcast
3:15 PM 48.2 °F - 43.0 °F 82% 30.12 in 10.0 mi NNW 6.9 mph - N/A   Overcast
3:35 PM 47.8 °F - 43.0 °F 83% 30.12 in 10.0 mi NW 8.1 mph - N/A   Overcast
3:55 PM 47.7 °F - 43.0 °F 84% 30.12 in 10.0 mi NNW 10.4 mph - N/A   Overcast
4:15 PM 47.3 °F - 42.1 °F 82% 30.12 in 10.0 mi NNW 8.1 mph - N/A   Overcast
4:35 PM 47.3 °F - 41.5 °F 80% 30.14 in 10.0 mi North 11.5 mph - N/A   Overcast
4:55 PM 46.8 °F - 41.5 °F 82% 30.14 in 10.0 mi North 9.2 mph - N/A   Overcast
5:15 PM 46.8 °F - 41.9 °F 83% 30.15 in 10.0 mi NNW 9.2 mph 16.1 mph N/A   Overcast
5:35 PM 46.6 °F - 41.9 °F 84% 30.16 in 10.0 mi North 10.4 mph - N/A   Overcast
5:55 PM 46.4 °F 41.5 °F 41.4 °F 83% 30.17 in 10.0 mi NNW 10.4 mph 16.1 mph N/A   Overcast
6:15 PM 46.0 °F 42.5 °F 41.2 °F 83% 30.17 in 10.0 mi NNW 6.9 mph - N/A   Overcast
6:35 PM 46.0 °F 41.4 °F 40.8 °F 82% 30.18 in 10.0 mi NNW 9.2 mph - N/A   Overcast
6:55 PM 46.4 °F 41.9 °F 40.6 °F 80% 30.18 in 10.0 mi NNW 9.2 mph 16.1 mph N/A   Overcast
7:15 PM 45.9 °F 43.6 °F 40.8 °F 83% 30.18 in 10.0 mi NNW 4.6 mph - N/A   Overcast
7:35 PM 45.9 °F 42.3 °F 41.0 °F 83% 30.18 in 10.0 mi NNW 6.9 mph - N/A   Overcast
7:55 PM 45.9 °F 43.6 °F 41.0 °F 83% 30.19 in 10.0 mi NW 4.6 mph - N/A   Overcast
8:15 PM 45.5 °F 42.5 °F 40.6 °F 83% 30.19 in 10.0 mi NNW 5.8 mph - N/A   Overcast
8:35 PM 45.5 °F 43.2 °F 40.8 °F 84% 30.20 in 10.0 mi NNW 4.6 mph - N/A   Overcast
8:55 PM 45.5 °F 42.5 °F 40.6 °F 83% 30.20 in 10.0 mi NNW 5.8 mph - N/A   Overcast
9:15 PM 45.5 °F 43.2 °F 40.6 °F 83% 30.20 in 10.0 mi NNW 4.6 mph - N/A   Overcast
9:35 PM 45.1 °F 43.7 °F 40.6 °F 84% 30.21 in 10.0 mi North 3.5 mph - N/A   Overcast
9:55 PM 45.1 °F 43.7 °F 41.0 °F 85% 30.20 in 10.0 mi NNW 3.5 mph - N/A   Overcast
10:35 PM 44.8 °F - 40.5 °F 85% 30.21 in 10.0 mi Calm Calm - N/A   Overcast
10:55 PM 44.6 °F 43.1 °F 40.1 °F 84% 30.20 in 10.0 mi NNE 3.5 mph - N/A   Overcast
11:15 PM 44.4 °F - 39.9 °F 84% 30.20 in 10.0 mi Calm Calm - N/A   Overcast
11:35 PM 44.2 °F - 39.9 °F 85% 30.21 in 10.0 mi Calm Calm - N/A   Overcast
11:55 PM 44.1 °F - 40.1 °F 86% 30.21 in 10.0 mi Calm Calm - N/A   Overcast